Weather History for Renton, WA

Change the Weather History Date:

Saturday, March 9, 2013

  Actual Average Record
Temperature  
Mean Temperature 44 °F -  
Max Temperature 55 °F 50 °F 59 °F (2005)
Min Temperature 32 °F 38 °F 32 °F (2009)
Degree Days  
Heating Degree Days 22    
Moisture  
Dew Point 34 °F    
Average Humidity 74    
Maximum Humidity 97    
Minimum Humidity 35    
Precipitation  
Precipitation 0.00 in - - ()
Sea Level Pressure  
Sea Level Pressure 30.43 in    
Wind  
Wind Speed 2 mph (South)    
Max Wind Speed 8 mph    
Max Gust Speed -    
Visibility 10 miles    
Events      
Averages and records for this station are not official NWS values.
T = Trace of Precipitation, MM = Missing Value Source: NWS Daily Summary

Daily Weather History Graph

Daily Weather History Graph

Search for Another Location

Airport:

Trip Planner

Search our weather history database for the weather conditions in past years. The results will help you decide how hot, cold, wet, or windy it might be!

Date:

Astronomy

Mar. 09, 2013 Rise Set
Actual Time 6:33 AM PST 6:06 PM PST
Civil Twilight 6:02 AM PST 6:36 PM PST
Nautical Twilight 5:26 AM PST 7:12 PM PST
Astronomical Twilight 4:50 AM PST 7:48 PM PST
Moon 5:07 AM PST (3/9) 4:09 PM PST (3/9)
Length of Visible Light 12h 34m
Length of Day
11h 33m
Waning Crescent, 5% of the Moon is Illuminated
Mar 9
Waning Crescent
Mar 11
New
Mar 19
First Quarter
Mar 27
Full
Apr 2
Last Quarter

Hourly Weather History & Observations

Time (PST) Temp. Windchill Dew Point Humidity Pressure Visibility Wind Dir Wind Speed Gust Speed Precip Events Conditions
12:53 AM 36.0 °F - 35.1 °F 97% 30.28 in 9.0 mi Calm Calm - N/A   Clear
1:53 AM 35.1 °F - 33.1 °F 92% 30.30 in 9.0 mi Calm Calm - N/A   Clear
2:53 AM 34.0 °F - 33.1 °F 96% 30.31 in 9.0 mi Calm Calm - N/A   Clear
3:53 AM 34.0 °F - 32.0 °F 92% 30.32 in 9.0 mi Calm Calm - N/A   Clear
4:53 AM 33.1 °F 30.0 °F 32.0 °F 96% 30.35 in 10.0 mi ESE 3.5 mph - N/A   Clear
5:53 AM 33.1 °F - 30.9 °F 92% 30.36 in 10.0 mi Calm Calm - N/A   Clear
6:37 AM 32.0 °F - 30.2 °F 93% 30.36 in 9.0 mi Calm Calm - N/A   Partly Cloudy
6:53 AM 32.0 °F - 30.0 °F 92% 30.38 in 9.0 mi Calm Calm - N/A   Partly Cloudy
7:53 AM 35.1 °F - 32.0 °F 89% 30.42 in 10.0 mi Calm Calm - N/A   Clear
8:53 AM 39.0 °F 35.7 °F 35.1 °F 86% 30.44 in 10.0 mi SSE 4.6 mph - N/A   Clear
9:53 AM 43.0 °F 40.3 °F 36.0 °F 76% 30.44 in 10.0 mi South 4.6 mph - N/A   Clear
10:53 AM 45.0 °F 42.6 °F 37.9 °F 76% 30.45 in 10.0 mi NNW 4.6 mph - N/A   Clear
11:53 AM 48.9 °F - 37.9 °F 66% 30.47 in 10.0 mi NNW 3.5 mph - N/A   Clear
12:53 PM 50.0 °F - 37.9 °F 63% 30.46 in 10.0 mi NW 4.6 mph - N/A   Clear
1:53 PM 54.0 °F - 34.0 °F 47% 30.45 in 10.0 mi Variable 4.6 mph - N/A   Clear
2:53 PM 55.0 °F - 32.0 °F 42% 30.45 in 10.0 mi South 5.8 mph - N/A   Clear
3:53 PM 55.0 °F - 28.0 °F 35% 30.45 in 10.0 mi South 8.1 mph - N/A   Clear
4:53 PM 54.0 °F - 33.1 °F 45% 30.46 in 10.0 mi SSW 3.5 mph - N/A   Clear
5:53 PM 52.0 °F - 36.0 °F 54% 30.47 in 10.0 mi Calm Calm - N/A   Clear
6:53 PM 48.0 °F - 37.0 °F 66% 30.48 in 10.0 mi Calm Calm - N/A   Clear
7:53 PM 46.9 °F - 35.1 °F 63% 30.49 in 10.0 mi Variable 3.5 mph - N/A   Clear
8:53 PM 44.1 °F - 36.0 °F 73% 30.51 in 10.0 mi Calm Calm - N/A   Clear
9:53 PM 42.1 °F - 35.1 °F 76% 30.51 in 10.0 mi Calm Calm - N/A   Clear
10:53 PM 41.0 °F 39.0 °F 34.0 °F 76% 30.52 in 10.0 mi SE 3.5 mph - N/A   Clear
11:53 PM 39.9 °F - 34.0 °F 79% 30.52 in 10.0 mi Calm Calm - N/A   Clear